Location: Home
(42.5358°N, 72.7383°W)
Time: 00:34:23
(UTC-05:00)

Vanguard 3 - Pass Details

Date: 30 November 2021
Orbit: 508 x 3260 km, 33.3° (Epoch: 21 January)

Event Time Altitude Azimuth Distance (km) Brightness Sun altitude
Rises 10:43:38 0° 276° (W) 5,829 11.3 24.4°
Reaches altitude 10° 10:49:27 10° 262° (W) 4,236 10.8 24.7°
Maximum altitude 10:56:04 19° 224° (SW) 2,870 10.6 24.9°
Drops below altitude 10° 11:00:52 10° 182° (S) 2,918 11.7 25.1°
Sets 11:03:55 0° 163° (SSE) 3,511 11.8 25.2°
